Home > Weather > Barcelona > Past weeks

Flag for Spain Past Weather in Barcelona, Barcelona, Spain — Yesterday and Last 2 Weeks

Now
61 °F

Passing clouds.


Feels Like: 61 °F
Forecast: 55 / 71 °F
Wind: 5 mph from North

Location: Barcelona Airport

Current Time: May 31, 2016 at 4:04:23 AM

Latest Report: May 31, 2016 at 3:30 AM


Visibility: N/A

Pressure: 30.04 "Hg

Humidity: 77%

Dew Point: 54 °F

Location of BarcelonaLocation

Past Weather in Barcelona — Graph

°F

Barcelona Temperature Yesterday

Maximum temperature yesterday: 72 °F (at 10:30 AM)
Minimum temperature yesterday: 59 °F (at 6:00 AM)
Average temperature yesterday: 66 °F

High & Low Weather Summary for the Past Weeks

 TemperatureHumidityPressure
High79 °F (May 29, 1:30 PM)94% (May 19, 12:30 AM)30.18 "Hg (May 19, 12:30 AM)
Low55 °F (May 17, 4:30 AM)32% (May 29, 1:30 PM)29.80 "Hg (May 28, 7:00 PM)
Average64 °F74%30.00 "Hg
* Reported May 16 3:00 AM — May 31 3:00 AM, Barcelona, Weather by CustomWeather, © 2016

Note: Actual official high and low records may vary slightly from our data, if they occured in-between our weather recording intervals... More about our weather records

Advertising

Barcelona Weather History for the Previous 24 Hours

Scroll right to see more
 ConditionsComfort  
Time TempWeatherWind HumidityBarometerVisibility
3:00 AM
Tue, May 31
61 °FPassing clouds.6 mph83%30.04 "HgN/A
2:30 AM63 °FPassing clouds.6 mph77%30.04 "HgN/A
2:00 AM63 °FPassing clouds.6 mph77%30.04 "HgN/A
1:30 AM63 °FPassing clouds.6 mph77%30.04 "HgN/A
1:00 AM63 °FPassing clouds.3 mph77%30.04 "HgN/A
12:30 AM63 °FPassing clouds.8 mph77%30.04 "HgN/A
12:00 AM63 °FPassing clouds.9 mph77%30.04 "HgN/A
11:30 PM
Mon, May 30
63 °FPassing clouds.10 mph77%30.04 "HgN/A
11:00 PM64 °FPassing clouds.13 mph73%30.04 "HgN/A
10:30 PM66 °FPassing clouds.8 mph83%30.04 "HgN/A
10:00 PM66 °FScattered clouds.6 mph78%30.01 "HgN/A
9:30 PM66 °FScattered clouds.6 mph78%29.98 "HgN/A
9:00 PM66 °FScattered clouds.5 mph78%29.98 "HgN/A
8:30 PM68 °FScattered clouds.6 mph73%29.98 "HgN/A
8:00 PM68 °FScattered clouds.6 mph73%29.98 "HgN/A
7:30 PM68 °FScattered clouds.6 mph73%29.98 "HgN/A
7:00 PM68 °FScattered clouds.7 mph69%29.98 "HgN/A
6:30 PM70 °FScattered clouds.8 mph64%29.95 "HgN/A
6:00 PM70 °FScattered clouds.9 mph64%29.95 "HgN/A
5:30 PM70 °FScattered clouds.9 mph60%29.95 "HgN/A
5:00 PM70 °FScattered clouds.10 mph64%29.95 "HgN/A
4:30 PM70 °FScattered clouds.10 mph57%29.95 "HgN/A
4:00 PM70 °FScattered clouds.10 mph57%29.98 "HgN/A
3:30 PM70 °FScattered clouds.9 mph53%29.98 "HgN/A
3:00 PM68 °FScattered clouds.7 mph69%29.98 "HgN/A
2:30 PM68 °FScattered clouds.6 mph78%29.98 "HgN/A
2:00 PM68 °FScattered clouds.9 mph73%30.01 "HgN/A
1:30 PM68 °FScattered clouds.9 mph73%30.01 "HgN/A
1:00 PM68 °FScattered clouds.12 mph69%30.01 "HgN/A
12:30 PM68 °FScattered clouds.13 mph73%30.01 "HgN/A
12:00 PM70 °FScattered clouds.12 mph64%30.01 "HgN/A
11:30 AM70 °FScattered clouds.10 mph64%30.01 "HgN/A
11:00 AM70 °FScattered clouds.9 mph64%30.01 "HgN/A
10:30 AM72 °FScattered clouds.3 mph44%30.01 "HgN/A
10:00 AM70 °FScattered clouds.3 mph53%30.01 "HgN/A
9:30 AM68 °FScattered clouds.7 mph56%30.01 "HgN/A
9:00 AM66 °FPassing clouds.8 mph60%30.01 "HgN/A
8:30 AM64 °FPassing clouds.8 mph64%29.98 "HgN/A
8:00 AM63 °FPassing clouds.7 mph64%29.98 "HgN/A
7:30 AM61 °FPassing clouds.9 mph72%29.98 "HgN/A
7:00 AM61 °FPassing clouds.9 mph72%29.98 "HgN/A
6:30 AM59 °FPassing clouds.7 mph77%29.95 "HgN/A
6:00 AM59 °FPassing clouds.8 mph77%29.95 "HgN/A
5:30 AM61 °FPassing clouds.8 mph72%29.95 "HgN/A
5:00 AM61 °FPassing clouds.6 mph72%29.95 "HgN/A
4:30 AM61 °FPassing clouds.6 mph72%29.95 "HgN/A
4:00 AM61 °FPassing clouds.5 mph72%29.95 "HgN/A
Weather by CustomWeather, © 2016

See weather overviewHow to use our weather pages